Regional Weather Roundup
Issued by NWS Upton, NY

Current Version | Previous Version | Graphics & Text | Print | Product List | Glossary Off
Versions: 1 2 3 4 5 6 7 8 9 10 11 12 13 14 15 16 17 18 19 20 21 22 23 24 25 26 27 28 29 30 31 32 33 34 35 36 37 38 39 40 41 42 43 44 45 46 47 48 49 50

000
ASUS41 KOKX 282205
RWROKX

REGIONAL WEATHER ROUNDUP
NATIONAL WEATHER SERVICE NEW YORK NY
500 PM EST SUN DEC 28 2014

NOTE: "FAIR" INDICATES FEW OR NO CLOUDS BELOW 12,000 FEET WITH NO
SIGNIFICANT WEATHER AND/OR OBSTRUCTIONS TO VISIBILITY.

NYZ071-072-176-178-NJZ106-104-282300-
NEW YORK CITY METRO AREA


CITY           SKY/WX    TMP DP  RH WIND       PRES   REMARKS
CENTRAL PARK   CLOUDY    51  39  63 VRB6      29.97R
LAGUARDIA APRT CLOUDY    50  40  68 N13       29.94R
KENNEDY INTL   CLOUDY    53  41  63 NW12      29.94R
NEWARK/LIBERTY CLOUDY    52  41  66 NW8       29.95R
BRNX BOT. GARD   N/A     48  39  71 W9        29.95F
TETERBORO      CLOUDY    52  41  66 NW9       29.94R
$$

NYZ177-179-078>081-282300-
LONG ISLAND NEW YORK

CITY           SKY/WX    TMP DP  RH WIND       PRES   REMARKS
FARMINGDALE    CLOUDY    51  42  71 NW7       29.94R
ISLIP          CLOUDY    50  42  74 W9        29.91R
SHIRLEY        CLOUDY    50  42  74 W6        29.93R
WESTHAMPTON    CLOUDY    50  41  71 W7        29.93R
MONTAUK POINT    N/A     48  43  82 SW7       29.90R
$$

NYZ052-065-067-282300-
HUDSON VALLEY

CITY           SKY/WX    TMP DP  RH WIND       PRES   REMARKS
WHITE PLAINS   CLOUDY    46  36  68 NW9       29.93R
NEWBURGH       MOCLDY    45  34  65 W16       29.96
MONTGOMERY     CLOUDY    45  32  60 W6        29.94R
POUGHKEEPSIE   CLOUDY    47  31  53 W8        29.94R
ALBANY         CLOUDY    39  27  62 NW14G26   29.97R WCI  31
$$

NJZ001-105-106-008-010-013-015-019>022-104-282300-
NEW JERSEY

CITY           SKY/WX    TMP DP  RH WIND       PRES   REMARKS
NEWARK/LIBERTY CLOUDY    52  41  66 NW8       29.95R
TETERBORO      CLOUDY    52  41  66 NW9       29.94R
CALDWELL       CLOUDY    49  39  68 NE3       29.95R
MORRISTOWN     CLOUDY    52  43  71 N5        29.94S
SOMERVILLE     CLOUDY    51  40  65 VRB5      29.94R
SUSSEX         CLOUDY    44  35  70 CALM      29.96R
ANDOVER        NOT AVBL
TRENTON        CLOUDY    52  41  66 NW9       29.95R
MILLVILLE      MOCLDY    50  43  77 W5        29.97R
ATLANTIC CITY  CLOUDY    51  42  71 CALM      29.96R
WRIGHTSTOWN    CLOUDY    52  43  71 NW5       29.94R
TOMS RIVER     CLOUDY    48  45  87 SW5       29.97R
BELMAR         CLOUDY    52  39  62 W5        29.94S
$$

PAZ047>061-062-071-282300-
EASTERN PENNSYLVANIA

CITY           SKY/WX    TMP DP  RH WIND       PRES   REMARKS
PHILADELPHIA   CLOUDY    55  41  59 NW8       29.98R
ALLENTOWN      CLOUDY    50  36  58 W8        29.96R
SCRANTON       CLOUDY    42  31  64 NW6       29.98R
$$

CTZ002-004>006-009-010-012-RIZ004-006-007-MAZ004-011-015-282300-
SOUTHERN NEW ENGLAND
 IN CT

CITY           SKY/WX    TMP DP  RH WIND       PRES   REMARKS
BRADLEY INTL   CLOUDY    45  32  60 CALM      29.91R
HARTFORD       CLOUDY    46  33  60 W8        29.92R
DANBURY        CLOUDY    47  32  56 W13       29.93R
WTRBRY/OXFORD  CLOUDY    45  34  65 N10G16    29.92R
BRIDGEPORT     CLOUDY    51  40  65 W9        29.92R
MERIDEN        CLOUDY    48  38  68 NW10      29.92R
NEW HAVEN      CLOUDY    53  39  59 W9        29.91R
CHESTER        FAIR      48  39  71 NW5       29.90R
GROTON         MOCLDY    46  44  93 W5        29.89R FOG
WILLIMANTIC    CLOUDY    46  35  65 W6        29.89R

 IN RI

CITY           SKY/WX    TMP DP  RH WIND       PRES   REMARKS
PROVIDENCE     CLOUDY    48  36  63 NW8       29.88R
BLOCK ISLAND   MOCLDY    46  41  81 W10       29.89R
WESTERLY       CLOUDY    46  44  93 W5        29.89R

 IN MA

CITY           SKY/WX    TMP DP  RH WIND       PRES   REMARKS
BOSTON         CLOUDY    47  32  56 W16       29.85R
WORCESTER      CLOUDY    40  31  70 W12       29.85R WCI  33
WESTFIELD      CLOUDY    43  31  62 NW9G18    29.92R
PROVINCETOWN   MOCLDY    46  41  81 W12G17    29.84R
NANTUCKET      CLOUDY    47  43  86 W13       29.86R
$$

ANZ330-335-338-340-345-350-353-355-282300-
COASTAL MARINE OBSERVATIONS


STATION/POSITION TIME  SKY/WX   TEMP    WIND        PRES    VSBY  WAVE
                                AIR SEA DIR/SP/G                  HT/PER
                 (UTC)          (F)     (DEG/KT/KT) (MB)    (MI)  (FT/S)
NY HARB ENTRANCE 2200            48 45  260/  6/  6 1014.3          3/11
4S FIRE IS       2200               47                N/A           4/ 6
20S FIRE ISLAND  2100            49 49              1013.6          4/ 6
23SW MTP         2200                                 N/A           5/ 6
HUDSON CANYON    2200            52 55  270/ 12/ 14 1014.0          6/ 7
EXECUTION ROCKS  2200            48 42  310/ 10/ 16   N/A
WESTERN LI SOUND 2200            49     310/ 12/ 16   N/A           0
CENTRAL LI SOUND 2200            46 44  260/ 12/ 14   N/A           2/ 4
EASTERN LI SOUND NOT AVBL
ROBBINS REEF     2200            52                 1012.7
$$


>>>>>>>>>>>>>>>>>>>>>>>>>>>> KEY <<<<<<<<<<<<<<<<<<<<<<<<<<<
>                                                          <
>     SKY/WX - SKY CONDITION/PRESENT WEATHER               <
>     TMP    - TEMPERATURE IN FAHRENHEIT                   <
>     DP     - DEWPOINT IN FAHRENHEIT                      <
>     RH     - RELATIVE HUMIDITY IN PERCENT                <
>     WIND   - DIRECTION AND SPEED IN MPH                  <
>     PRES   - MEAN SEA LEVEL PRESSURE IN INCHES OF HG     <
>     WCI    - WIND CHILL INDEX                            <
>     VSB    - VISIBILITY IN MILES                         <
>     HX     - HEAT INDEX                                  <
>     TC     - TEMPERATURE IN CELSIUS                      <
>     VRB    - VARIABLE WIND DIRECTION                     <
>                                                          <
>>>>>>>>>>>>>>>>>>>>>>>>>>>> KEY <<<<<<<<<<<<<<<<<<<<<<<<<<<




USA.gov is the U.S. government's official web portal to all federal, state and local government web resources and services.